Santa Barbara Weather Center

Moon Phase Calendar



Online Cameras

 


      

Current Conditions in Santa Barbara
10/22/2020 2:10:17 AM

61°F
Feels Like 61
Mist
Humidity
88%
Pressure
29.85"
Wind
4.7 mph (SSE)
Dew Point
58°F
UV Index
5/10 (Moderate)
Visibility
3 mi

Hourly Forecast

Date & Time Thu, Oct 22
2:00 AM
Thu, Oct 22
3:00 AM
Thu, Oct 22
4:00 AM
Thu, Oct 22
5:00 AM
Thu, Oct 22
6:00 AM
Thu, Oct 22
7:00 AM
Thu, Oct 22
8:00 AM
Thu, Oct 22
9:00 AM
Thu, Oct 22
10:00 AM
Thu, Oct 22
11:00 AM
Thu, Oct 22
12:00 PM
Thu, Oct 22
1:00 PM
Thu, Oct 22
2:00 PM
Thu, Oct 22
3:00 PM
Thu, Oct 22
4:00 PM
Thu, Oct 22
5:00 PM
Thu, Oct 22
6:00 PM
Thu, Oct 22
7:00 PM
Thu, Oct 22
8:00 PM
Thu, Oct 22
9:00 PM
Thu, Oct 22
10:00 PM
Thu, Oct 22
11:00 PM
Fri, Oct 23
12:00 AM
Fri, Oct 23
1:00 AM
Fri, Oct 23
2:00 AM
Fri, Oct 23
3:00 AM
Fri, Oct 23
4:00 AM
Fri, Oct 23
5:00 AM
Fri, Oct 23
6:00 AM
Fri, Oct 23
7:00 AM
Fri, Oct 23
8:00 AM
Fri, Oct 23
9:00 AM
Fri, Oct 23
10:00 AM
Fri, Oct 23
11:00 AM
Fri, Oct 23
12:00 PM
Fri, Oct 23
1:00 PM
Fri, Oct 23
2:00 PM
Fri, Oct 23
3:00 PM
Fri, Oct 23
4:00 PM
Fri, Oct 23
5:00 PM
Fri, Oct 23
6:00 PM
Fri, Oct 23
7:00 PM
Fri, Oct 23
8:00 PM
Fri, Oct 23
9:00 PM
Fri, Oct 23
10:00 PM
Fri, Oct 23
11:00 PM
Sat, Oct 24
12:00 AM
Sat, Oct 24
1:00 AM
Condition
Clouds

Clouds

Clouds

Clouds

Clouds

Clouds

Clouds

Clouds

Clouds

Clouds

Clouds

Clouds

Clouds

Clouds

Clouds

Clouds

Clouds

Clouds

Clouds

Clouds

Clouds

Clouds

Clouds

Clouds

Clouds

Clouds

Clouds

Clouds

Clouds

Clouds

Clouds

Clouds

Clouds

Clouds

Clouds

Clouds

Clouds

Clouds

Clouds

Clouds

Clouds

Clouds

Clouds

Clouds

Clouds

Clouds

Clouds

Clouds
Temperature 61°F61°F61°F61°F60°F60°F62°F66°F68°F70°F71°F71°F71°F71°F69°F67°F64°F62°F63°F63°F63°F62°F62°F61°F62°F62°F62°F62°F61°F61°F63°F64°F66°F67°F68°F69°F69°F69°F67°F65°F62°F60°F61°F62°F61°F60°F61°F61°F
Feels Like 62°F60°F58°F58°F58°F58°F61°F65°F68°F69°F70°F71°F71°F70°F69°F68°F65°F64°F64°F64°F63°F61°F61°F60°F60°F60°F60°F60°F59°F59°F60°F62°F64°F65°F66°F67°F67°F68°F67°F66°F63°F61°F62°F62°F62°F61°F61°F60°F
Cloudiness 90%56%43%40%92%95%96%97%97%98%97%93%81%63%52%45%26%31%37%43%47%44%34%44%54%61%66%69%84%84%88%87%88%90%100%100%100%100%100%100%100%100%100%100%100%100%100%100%
Visibility 6 mi6 mi6 mi6 mi6 mi6 mi6 mi6 mi6 mi6 mi6 mi6 mi6 mi6 mi6 mi6 mi6 mi6 mi6 mi6 mi6 mi6 mi6 mi6 mi6 mi6 mi6 mi6 mi6 mi6 mi6 mi6 mi6 mi6 mi6 mi6 mi6 mi6 mi6 mi6 mi6 mi6 mi6 mi6 mi6 mi6 mi6 mi6 mi
Precipitation 0%0%0%0%0%0%0%0%0%0%0%0%0%0%0%0%0%0%0%0%0%0%0%0%0%0%0%0%0%0%0%0%0%0%0%0%0%0%0%0%0%0%0%0%0%0%0%0%
Humidity 88%75%68%64%69%72%66%65%65%64%63%62%64%65%68%73%83%83%82%81%79%79%77%78%79%79%78%76%78%77%72%73%70%67%65%63%63%64%67%73%81%82%83%81%81%81%81%80%
Dew Point 58°F53°F50°F49°F50°F51°F51°F54°F56°F57°F58°F58°F59°F59°F59°F59°F58°F57°F57°F57°F57°F55°F54°F54°F55°F55°F55°F54°F54°F54°F54°F55°F56°F56°F57°F56°F56°F56°F56°F56°F56°F55°F56°F56°F55°F55°F55°F55°F
Pressure 29.85"29.85"29.83"29.83"29.83"29.83"29.85"29.88"29.88"29.88"29.88"29.85"29.83"29.83"29.83"29.83"29.85"29.85"29.85"29.88"29.88"29.91"29.91"29.91"29.91"29.91"29.88"29.88"29.91"29.91"29.94"29.97"29.97"29.94"29.94"29.94"29.94"29.91"29.91"29.91"29.91"29.94"29.97"29.97"29.97"30"30"29.97"
Wind Speed 3.4 mph4.4 mph4.8 mph4.4 mph4.3 mph3.8 mph3.4 mph4.1 mph4.4 mph4.8 mph5.1 mph5.9 mph6.1 mph5.5 mph5 mph3.9 mph2.2 mph1 mph1.2 mph2 mph3.2 mph3.5 mph3.2 mph3.7 mph4.6 mph5.1 mph5.8 mph5.5 mph5.6 mph6.3 mph6.6 mph7.2 mph7.6 mph7.5 mph7.5 mph7.6 mph6.8 mph4.8 mph4 mph2.4 mph2 mph1 mph0.6 mph1.7 mph0.2 mph0.4 mph3.4 mph3.1 mph
Wind
Direction
99°
E
96°
E
96°
E
107°
ESE
116°
ESE
106°
ESE
102°
ESE
128°
SE
153°
SSE
171°
S
173°
S
173°
S
178°
S
184°
S
186°
S
193°
SSW
198°
SSW
155°
SSE
125°
SE
83°
E
85°
E
82°
E
90°
E
104°
ESE
101°
E
102°
ESE
98°
E
114°
ESE
120°
ESE
106°
ESE
108°
ESE
124°
SE
129°
SE
143°
SE
150°
SSE
157°
SSE
166°
SSE
168°
SSE
165°
SSE
151°
SSE
196°
SSW
238°
WSW
245°
WSW
53°
NE
183°
S
186°
S
59°
ENE
82°
E

Daily Forecast

Date High Low Precip. Humidity
Today
Oct 22

Clouds
71 °F
61 °F
0%
65%
Friday
Oct 23

Clouds
69 °F
60 °F
0%
67%
Saturday
Oct 24

Clouds
69 °F
60 °F
0%
68%
Sunday
Oct 25

Clouds
67 °F
58 °F
0%
55%
Monday
Oct 26

Clear
69 °F
57 °F
0%
40%
Tuesday
Oct 27

Clear
72 °F
59 °F
0%
21%
Wednesday
Oct 28

Clear
76 °F
63 °F
0%
19%
Thursday
Oct 29

Clear
82 °F
66 °F
0%
18%
Friday
Oct 30

Clear
84 °F
69 °F
0%
16%
Saturday
Oct 31

Clouds
82 °F
70 °F
0%
17%
Sunday
Nov 1

Clear
82 °F
70 °F
0%
16%
Monday
Nov 2

Clear
85 °F
71 °F
0%
15%
Tuesday
Nov 3

Clear
85 °F
72 °F
0%
15%
Wednesday
Nov 4

Clear
86 °F
72 °F
0%
15%
Thursday
Nov 5

Clear
85 °F
72 °F
0%
16%
Friday
Nov 6

Clear
84 °F
71 °F
0%
19%


Temperature 8-14 Day Outlook



Precipitation 8-14 Day Outlook




Quick Links
Santa Barbara News
Santa Barbara Photos
Santa Barbara Videos




About Us
Contact Us
Site Map
Search Site
Advertise With Us
   
SantaBarbara.USCoast.info
THE SANTA BARBARA WEBSITE

Copyright 2020, Coastal Town
Privacy    |    Legal